Hourly Weather Ruhli

Today, 16 April, Friday

Time Temperature Precipitation Wind Pressure Humidity
00:00 +3°C° 0 mm 5 mps 744 mmHg 95%
01:00 +5°C° 0 mm 5 mps 744 mmHg 96%
02:00 +5°C° 0 mm 5 mps 744 mmHg 96%
03:00 +5°C° 0.1 mm 5 mps 744 mmHg 96%
04:00 +6°C° 0.1 mm 5 mps 744 mmHg 96%
05:00 +6°C° 0.1 mm 5 mps 744 mmHg 97%
06:00 +6°C° 1.2 mm 5 mps 744 mmHg 96%
07:00 +5°C° 1.2 mm 5 mps 744 mmHg 96%
08:00 +5°C° 1.2 mm 5 mps 744 mmHg 96%
09:00 +6°C° 0.5 mm 5 mps 744 mmHg 93%
10:00 +7°C° 0.5 mm 5 mps 744 mmHg 91%
11:00 +8°C° 0.5 mm 5 mps 744 mmHg 88%
12:00 +9°C° 0.1 mm 6 mps 744 mmHg 85%
13:00 +10°C° 0.1 mm 6 mps 744 mmHg 82%
14:00 +10°C° 0.1 mm 6 mps 745 mmHg 79%
15:00 +10°C° 0.5 mm 6 mps 745 mmHg 78%
16:00 +10°C° 0.5 mm 6 mps 745 mmHg 78%
17:00 +11°C° 0.5 mm 6 mps 745 mmHg 77%
18:00 +10°C° 0.3 mm 6 mps 745 mmHg 81%
19:00 +8°C° 0.3 mm 5 mps 745 mmHg 85%
20:00 +7°C° 0.3 mm 4 mps 745 mmHg 89%
21:00 +7°C° 0 mm 4 mps 746 mmHg 91%
22:00 +7°C° 0 mm 4 mps 746 mmHg 92%
23:00 +7°C° 0 mm 4 mps 746 mmHg 94%

Tomorrow, 17 April, Saturday

Time Temperature Precipitation Wind Pressure Humidity
00:00 +6°C° 0 mm 4 mps 746 mmHg 95%
01:00 +6°C° 0 mm 4 mps 746 mmHg 95%
02:00 +6°C° 0 mm 4 mps 746 mmHg 95%
03:00 +7°C° 0 mm 3 mps 746 mmHg 96%
04:00 +5°C° 0 mm 3 mps 747 mmHg 96%
05:00 +5°C° 0 mm 3 mps 747 mmHg 96%
06:00 +7°C° 0 mm 3 mps 747 mmHg 92%
07:00 +8°C° 0 mm 3 mps 748 mmHg 89%
08:00 +9°C° 0 mm 3 mps 748 mmHg 85%
09:00 +10°C° 0.1 mm 4 mps 748 mmHg 78%
10:00 +11°C° 0.1 mm 4 mps 748 mmHg 71%
11:00 +12°C° 0.1 mm 4 mps 748 mmHg 64%
12:00 +13°C° 0.2 mm 4 mps 748 mmHg 61%
13:00 +14°C° 0.2 mm 4 mps 748 mmHg 57%
14:00 +14°C° 0.2 mm 4 mps 748 mmHg 54%
15:00 +14°C° 0 mm 4 mps 748 mmHg 55%
16:00 +14°C° 0 mm 4 mps 748 mmHg 55%
17:00 +14°C° 0 mm 3 mps 748 mmHg 55%
18:00 +12°C° 0 mm 4 mps 749 mmHg 63%
19:00 +11°C° 0 mm 4 mps 749 mmHg 71%
20:00 +10°C° 0 mm 4 mps 749 mmHg 78%
21:00 +10°C° 0.2 mm 4 mps 749 mmHg 83%
22:00 +9°C° 0.2 mm 3 mps 749 mmHg 87%
23:00 +9°C° 0.2 mm 3 mps 749 mmHg 91%

Day after tomorrow, 18 April, Sunday

Time Temperature Precipitation Wind Pressure Humidity
00:00 +9°C° 0.1 mm 3 mps 749 mmHg 91%
01:00 +8°C° 0.1 mm 3 mps 748 mmHg 92%
02:00 +8°C° 0.1 mm 3 mps 748 mmHg 92%
03:00 +8°C° 0 mm 3 mps 748 mmHg 93%
04:00 +7°C° 0 mm 3 mps 748 mmHg 94%
05:00 +7°C° 0 mm 3 mps 748 mmHg 95%
06:00 +6°C° 0 mm 4 mps 748 mmHg 90%
07:00 +7°C° 0 mm 4 mps 748 mmHg 85%
08:00 +8°C° 0 mm 5 mps 748 mmHg 79%
09:00 +9°C° 0 mm 5 mps 749 mmHg 74%
10:00 +10°C° 0 mm 5 mps 749 mmHg 70%
11:00 +12°C° 0 mm 5 mps 749 mmHg 65%
12:00 +12°C° 0 mm 5 mps 749 mmHg 65%
13:00 +10°C° 0 mm 5 mps 749 mmHg 66%
14:00 +10°C° 0 mm 5 mps 749 mmHg 66%
15:00 +11°C° 0 mm 4 mps 749 mmHg 68%
16:00 +10°C° 0 mm 4 mps 749 mmHg 69%
17:00 +10°C° 0 mm 3 mps 750 mmHg 70%
18:00 +9°C° 0 mm 3 mps 750 mmHg 73%
19:00 +8°C° 0 mm 4 mps 750 mmHg 76%
20:00 +7°C° 0 mm 4 mps 750 mmHg 78%
21:00 +8°C° 0 mm 3 mps 750 mmHg 81%
22:00 +7°C° 0 mm 3 mps 750 mmHg 83%
23:00 +5°C° 0 mm 3 mps 750 mmHg 85%

19 April, Monday

Time Temperature Precipitation Wind Pressure Humidity
00:00 +5°C° 0 mm 3 mps 750 mmHg 88%
01:00 +4°C° 0 mm 3 mps 750 mmHg 91%
02:00 +3°C° 0 mm 3 mps 750 mmHg 94%
03:00 +3°C° 0 mm 3 mps 750 mmHg 92%
04:00 +4°C° 0 mm 3 mps 750 mmHg 90%
05:00 +4°C° 0 mm 3 mps 750 mmHg 87%
06:00 +4°C° 0 mm 4 mps 750 mmHg 84%
07:00 +5°C° 0 mm 4 mps 750 mmHg 81%
08:00 +5°C° 0 mm 5 mps 750 mmHg 78%
09:00 +6°C° 0 mm 5 mps 750 mmHg 76%
10:00 +6°C° 0 mm 5 mps 749 mmHg 74%
11:00 +6°C° 0 mm 5 mps 749 mmHg 72%
12:00 +7°C° 0 mm 5 mps 749 mmHg 72%
13:00 +7°C° 0 mm 4 mps 749 mmHg 71%
14:00 +7°C° 0 mm 4 mps 749 mmHg 70%
15:00 +7°C° 0 mm 4 mps 749 mmHg 71%
16:00 +7°C° 0 mm 4 mps 748 mmHg 72%
17:00 +8°C° 0 mm 4 mps 748 mmHg 73%
18:00 +7°C° 0 mm 4 mps 748 mmHg 75%
19:00 +7°C° 0 mm 4 mps 747 mmHg 77%
20:00 +6°C° 0 mm 4 mps 747 mmHg 80%
21:00 +6°C° 0 mm 4 mps 747 mmHg 82%
22:00 +5°C° 0 mm 4 mps 746 mmHg 85%
23:00 +5°C° 0 mm 4 mps 746 mmHg 88%

20 April, Tuesday

Time Temperature Precipitation Wind Pressure Humidity
00:00 +5°C° 0 mm 4 mps 746 mmHg 89%
01:00 +4°C° 0 mm 4 mps 746 mmHg 91%
02:00 +4°C° 0 mm 3 mps 745 mmHg 92%
03:00 +4°C° 0 mm 4 mps 745 mmHg 92%
04:00 +4°C° 0 mm 4 mps 744 mmHg 92%
05:00 +4°C° 0 mm 4 mps 744 mmHg 91%
06:00 +4°C° 0 mm 4 mps 743 mmHg 91%
07:00 +5°C° 0 mm 5 mps 743 mmHg 91%
08:00 +5°C° 0 mm 5 mps 742 mmHg 91%
09:00 +5°C° 0.1 mm 5 mps 742 mmHg 90%
10:00 +5°C° 0.1 mm 5 mps 742 mmHg 89%
11:00 +5°C° 0.1 mm 5 mps 741 mmHg 88%
12:00 +6°C° 0.1 mm 5 mps 741 mmHg 89%
13:00 +6°C° 0.1 mm 5 mps 740 mmHg 89%
14:00 +6°C° 0.1 mm 5 mps 740 mmHg 90%
15:00 +6°C° 0 mm 5 mps 739 mmHg 88%
16:00 +5°C° 0 mm 6 mps 739 mmHg 85%
17:00 +5°C° 0 mm 6 mps 738 mmHg 83%
18:00 +5°C° 0 mm 6 mps 738 mmHg 83%
19:00 +5°C° 0 mm 6 mps 738 mmHg 82%
20:00 +5°C° 0 mm 6 mps 737 mmHg 82%
21:00 +4°C° 0.2 mm 6 mps 737 mmHg 84%
22:00 +4°C° 0.2 mm 6 mps 736 mmHg 85%
23:00 +4°C° 0.2 mm 6 mps 736 mmHg 87%

21 April, Wednesday

Time Temperature Precipitation Wind Pressure Humidity
00:00 +3°C° 0.5 mm 6 mps 736 mmHg 89%
01:00 +3°C° 0.5 mm 6 mps 735 mmHg 90%
02:00 +3°C° 0.5 mm 6 mps 735 mmHg 92%
03:00 +2°C° 0.4 mm 6 mps 735 mmHg 93%
04:00 +2°C° 0.4 mm 6 mps 735 mmHg 93%
05:00 +2°C° 0.4 mm 6 mps 735 mmHg 94%
06:00 +2°C° 0.1 mm 6 mps 735 mmHg 93%
07:00 +2°C° 0.1 mm 6 mps 735 mmHg 92%
08:00 +2°C° 0.1 mm 5 mps 735 mmHg 91%
09:00 +3°C° 0 mm 6 mps 735 mmHg 87%
10:00 +4°C° 0 mm 6 mps 736 mmHg 83%
11:00 +4°C° 0 mm 6 mps 736 mmHg 79%
12:00 +5°C° 0 mm 6 mps 736 mmHg 76%
13:00 +7°C° 0 mm 6 mps 736 mmHg 72%
14:00 +8°C° 0 mm 6 mps 737 mmHg 68%
15:00 +8°C° 0 mm 6 mps 737 mmHg 67%
16:00 +8°C° 0 mm 6 mps 737 mmHg 66%
17:00 +8°C° 0 mm 5 mps 738 mmHg 64%
18:00 +7°C° 0 mm 5 mps 738 mmHg 70%
19:00 +6°C° 0 mm 4 mps 739 mmHg 75%
20:00 +5°C° 0 mm 4 mps 739 mmHg 80%
21:00 +5°C° 0 mm 4 mps 740 mmHg 83%
22:00 +5°C° 0 mm 4 mps 740 mmHg 85%
23:00 +4°C° 0 mm 4 mps 741 mmHg 87%
Show more